Location: ???????
(55.7027°N, 37.3832°E)
Time: 09:22:58
(UTC+00:00)

Cosmos 44 - Pass Details

Date: 14 April 2026
Orbit: 568 x 782 km, 65.1° (Epoch: 19 May)

Event Time Altitude Azimuth Distance (km) Brightness Sun altitude
Exits shadow 21:16:16 46° 247° (WSW) 1,000 3.9 -24.6°
Maximum altitude 21:17:48 75° 321° (NW) 789 3.5 -24.6°
Drops below altitude 10° 21:23:12 10° 47° (NE) 2,334 6.5 -24.6°
Sets 21:25:40 0° 49° (NE) 3,275 7.3 -24.6°
